• en France
  • Liste des pays
  • À 7 jours
  • Température de l'eau
  • Carte satellitaire
  • Carte météo
  • Widgets météo
  • user-avatar
    Se connecter

    Météo par heure à Tunja

    Ce jour, 19 Août, Dimanche

    Heure Température Précipitation Vent Pression Humidité
    00:00 +10°C° 0,6 mm 1 m/s 549 mmHg 93%
    01:00 +10°C° 0,6 mm 1 m/s 549 mmHg 93%
    02:00 +10°C° 0,8 mm 1 m/s 549 mmHg 93%
    03:00 +10°C° 0,8 mm 1 m/s 549 mmHg 93%
    04:00 +10°C° 0,8 mm 1 m/s 549 mmHg 92%
    05:00 +11°C° 0,3 mm 1 m/s 550 mmHg 91%
    06:00 +11°C° 0,3 mm 1 m/s 550 mmHg 90%
    07:00 +11°C° 0,3 mm 1 m/s 550 mmHg 89%
    08:00 +13°C° 0,2 mm 2 m/s 551 mmHg 83%
    09:00 +14°C° 0,2 mm 2 m/s 552 mmHg 77%
    10:00 +16°C° 0,2 mm 2 m/s 553 mmHg 71%
    11:00 +16°C° 0,3 mm 2 m/s 553 mmHg 69%
    12:00 +17°C° 0,3 mm 2 m/s 553 mmHg 66%
    13:00 +18°C° 0,3 mm 2 m/s 553 mmHg 64%
    14:00 +17°C° 0,4 mm 2 m/s 552 mmHg 66%
    15:00 +17°C° 0,4 mm 2 m/s 551 mmHg 67%
    16:00 +17°C° 0,4 mm 2 m/s 551 mmHg 69%
    17:00 +15°C° 0,4 mm 2 m/s 550 mmHg 76%
    18:00 +13°C° 0,4 mm 2 m/s 550 mmHg 83%
    19:00 +12°C° 0,4 mm 1 m/s 549 mmHg 90%
    20:00 +11°C° 0,2 mm 1 m/s 550 mmHg 90%
    21:00 +11°C° 0,2 mm 1 m/s 550 mmHg 90%
    22:00 +11°C° 0,2 mm 1 m/s 550 mmHg 90%
    23:00 +10°C° 0 mm 1 m/s 550 mmHg 91%

    Demain, 20 Août, Lundi

    Heure Température Précipitation Vent Pression Humidité
    00:00 +10°C° 0 mm 1 m/s 550 mmHg 91%
    01:00 +9°C° 0 mm 1 m/s 549 mmHg 91%
    02:00 +9°C° 0 mm 1 m/s 549 mmHg 91%
    03:00 +8°C° 0 mm 2 m/s 549 mmHg 91%
    04:00 +7°C° 0 mm 2 m/s 548 mmHg 91%
    05:00 +8°C° 0 mm 2 m/s 549 mmHg 89%
    06:00 +8°C° 0 mm 2 m/s 549 mmHg 87%
    07:00 +9°C° 0 mm 2 m/s 550 mmHg 85%
    08:00 +13°C° 0 mm 2 m/s 551 mmHg 74%
    09:00 +14°C° 0 mm 3 m/s 553 mmHg 63%
    10:00 +18°C° 0 mm 3 m/s 554 mmHg 52%
    11:00 +19°C° 0,1 mm 3 m/s 554 mmHg 51%
    12:00 +19°C° 0,1 mm 3 m/s 554 mmHg 50%
    13:00 +20°C° 0,1 mm 4 m/s 554 mmHg 50%
    14:00 +19°C° 0,4 mm 3 m/s 553 mmHg 55%
    15:00 +18°C° 0,4 mm 3 m/s 552 mmHg 59%
    16:00 +17°C° 0,4 mm 3 m/s 551 mmHg 64%
    17:00 +15°C° 0,3 mm 2 m/s 550 mmHg 72%
    18:00 +13°C° 0,3 mm 2 m/s 550 mmHg 80%
    19:00 +12°C° 0,3 mm 1 m/s 549 mmHg 88%
    20:00 +11°C° 0,1 mm 1 m/s 550 mmHg 89%
    21:00 +11°C° 0,1 mm 1 m/s 550 mmHg 89%
    22:00 +9°C° 0,1 mm 2 m/s 550 mmHg 90%
    23:00 +9°C° 0 mm 2 m/s 550 mmHg 90%

    Après-demain, 21 Août, Mardi

    Heure Température Précipitation Vent Pression Humidité
    00:00 +9°C° 0 mm 2 m/s 550 mmHg 90%
    01:00 +8°C° 0 mm 2 m/s 550 mmHg 90%
    02:00 +9°C° 0,1 mm 1 m/s 549 mmHg 90%
    03:00 +9°C° 0,1 mm 1 m/s 549 mmHg 90%
    04:00 +9°C° 0,1 mm 1 m/s 549 mmHg 90%
    05:00 +8°C° 0,2 mm 2 m/s 549 mmHg 88%
    06:00 +9°C° 0,2 mm 2 m/s 550 mmHg 86%
    07:00 +10°C° 0,2 mm 2 m/s 551 mmHg 84%
    08:00 +13°C° 0,2 mm 2 m/s 552 mmHg 76%
    09:00 +15°C° 0,2 mm 2 m/s 553 mmHg 69%
    10:00 +17°C° 0,2 mm 2 m/s 554 mmHg 62%
    11:00 +17°C° 0,3 mm 2 m/s 554 mmHg 62%
    12:00 +18°C° 0,3 mm 2 m/s 553 mmHg 61%
    13:00 +18°C° 0,3 mm 2 m/s 553 mmHg 61%
    14:00 +18°C° 0,6 mm 2 m/s 552 mmHg 63%
    15:00 +17°C° 0,6 mm 2 m/s 551 mmHg 66%
    16:00 +17°C° 0,6 mm 2 m/s 551 mmHg 69%
    17:00 +15°C° 0,7 mm 2 m/s 550 mmHg 76%
    18:00 +13°C° 0,7 mm 2 m/s 550 mmHg 83%
    19:00 +12°C° 0,7 mm 1 m/s 550 mmHg 90%
    20:00 +12°C° 0,2 mm 1 m/s 550 mmHg 91%
    21:00 +11°C° 0,2 mm 1 m/s 550 mmHg 91%
    22:00 +10°C° 0,2 mm 2 m/s 551 mmHg 92%
    23:00 +11°C° 0,2 mm 1 m/s 550 mmHg 92%

    22 Août, Mercredi

    Heure Température Précipitation Vent Pression Humidité
    00:00 +11°C° 0,2 mm 1 m/s 550 mmHg 92%
    01:00 +10°C° 0,2 mm 1 m/s 550 mmHg 92%
    02:00 +10°C° 0,2 mm 1 m/s 549 mmHg 91%
    03:00 +10°C° 0,2 mm 1 m/s 549 mmHg 91%
    04:00 +10°C° 0,2 mm 1 m/s 549 mmHg 91%
    05:00 +10°C° 0,1 mm 2 m/s 550 mmHg 90%
    06:00 +10°C° 0,1 mm 2 m/s 550 mmHg 88%
    07:00 +10°C° 0,1 mm 2 m/s 551 mmHg 87%
    08:00 +13°C° 0,1 mm 2 m/s 551 mmHg 81%
    09:00 +14°C° 0,1 mm 2 m/s 552 mmHg 74%
    10:00 +16°C° 0,1 mm 3 m/s 553 mmHg 68%
    11:00 +16°C° 0,3 mm 2 m/s 553 mmHg 67%
    12:00 +17°C° 0,3 mm 2 m/s 552 mmHg 65%
    13:00 +17°C° 0,3 mm 2 m/s 552 mmHg 64%
    14:00 +17°C° 0,6 mm 2 m/s 551 mmHg 66%
    15:00 +16°C° 0,6 mm 2 m/s 551 mmHg 68%
    16:00 +16°C° 0,6 mm 2 m/s 550 mmHg 70%
    17:00 +14°C° 0,5 mm 2 m/s 550 mmHg 77%
    18:00 +13°C° 0,5 mm 1 m/s 550 mmHg 83%
    19:00 +12°C° 0,5 mm 1 m/s 549 mmHg 89%
    20:00 +11°C° 0,3 mm 1 m/s 550 mmHg 90%
    21:00 +11°C° 0,3 mm 1 m/s 550 mmHg 91%
    22:00 +11°C° 0,3 mm 1 m/s 550 mmHg 92%
    23:00 +11°C° 0,3 mm 1 m/s 550 mmHg 92%

    23 Août, Jeudi

    Heure Température Précipitation Vent Pression Humidité
    00:00 +10°C° 0,3 mm 1 m/s 550 mmHg 91%
    01:00 +10°C° 0,3 mm 1 m/s 549 mmHg 90%
    02:00 +10°C° 0,4 mm 1 m/s 549 mmHg 90%
    03:00 +10°C° 0,4 mm 1 m/s 549 mmHg 90%
    04:00 +10°C° 0,4 mm 1 m/s 549 mmHg 90%
    05:00 +10°C° 0,1 mm 1 m/s 549 mmHg 88%
    06:00 +11°C° 0,1 mm 1 m/s 550 mmHg 86%
    07:00 +11°C° 0,1 mm 1 m/s 551 mmHg 85%
    08:00 +13°C° 0,2 mm 1 m/s 552 mmHg 78%
    09:00 +15°C° 0,2 mm 2 m/s 553 mmHg 72%
    10:00 +16°C° 0,2 mm 2 m/s 554 mmHg 66%
    11:00 +17°C° 0,4 mm 2 m/s 553 mmHg 65%
    12:00 +17°C° 0,4 mm 2 m/s 553 mmHg 64%
    13:00 +18°C° 0,4 mm 2 m/s 552 mmHg 62%
    14:00 +17°C° 0,5 mm 2 m/s 551 mmHg 67%
    15:00 +16°C° 0,5 mm 2 m/s 550 mmHg 71%
    16:00 +15°C° 0,5 mm 2 m/s 550 mmHg 75%
    17:00 +14°C° 0,4 mm 1 m/s 549 mmHg 81%
    18:00 +13°C° 0,4 mm 1 m/s 549 mmHg 87%
    19:00 +11°C° 0,4 mm 1 m/s 549 mmHg 93%
    20:00 +11°C° 0,4 mm 1 m/s 549 mmHg 94%
    21:00 +11°C° 0,4 mm 1 m/s 549 mmHg 94%
    22:00 +10°C° 0,4 mm 1 m/s 550 mmHg 94%
    23:00 +10°C° 0,2 mm 1 m/s 549 mmHg 94%

    24 Août, Vendredi

    Heure Température Précipitation Vent Pression Humidité
    00:00 +10°C° 0,2 mm 1 m/s 549 mmHg 93%
    01:00 +10°C° 0,2 mm 1 m/s 549 mmHg 92%
    02:00 +10°C° 0 mm 1 m/s 548 mmHg 91%
    03:00 +9°C° 0 mm 1 m/s 548 mmHg 91%
    04:00 +9°C° 0 mm 1 m/s 548 mmHg 90%
    05:00 +9°C° 0,1 mm 1 m/s 548 mmHg 88%
    06:00 +10°C° 0,1 mm 1 m/s 549 mmHg 86%
    07:00 +11°C° 0,1 mm 1 m/s 550 mmHg 83%
    08:00 +13°C° 0,3 mm 1 m/s 551 mmHg 77%
    09:00 +14°C° 0,3 mm 2 m/s 552 mmHg 71%
    10:00 +16°C° 0,3 mm 2 m/s 553 mmHg 65%
    11:00 +16°C° 0,8 mm 2 m/s 553 mmHg 66%
    12:00 +16°C° 0,8 mm 2 m/s 552 mmHg 68%
    13:00 +16°C° 0,8 mm 2 m/s 551 mmHg 69%
    14:00 +16°C° 1,1 mm 2 m/s 551 mmHg 74%
    15:00 +15°C° 1,1 mm 2 m/s 550 mmHg 79%
    16:00 +15°C° 1,1 mm 1 m/s 549 mmHg 84%
    17:00 +14°C° 0,5 mm 1 m/s 549 mmHg 88%
    18:00 +13°C° 0,5 mm 1 m/s 549 mmHg 91%
    19:00 +12°C° 0,5 mm 1 m/s 549 mmHg 95%
    20:00 +11°C° 0,2 mm 1 m/s 549 mmHg 95%
    21:00 +11°C° 0,2 mm 1 m/s 549 mmHg 95%
    22:00 +10°C° 0,2 mm 1 m/s 549 mmHg 95%
    23:00 +10°C° 0,1 mm 1 m/s 549 mmHg 95%
    Voir plus